Home   Weather   Incheon   Past weeks

Flag for South Korea Past Weather in Incheon, South Korea — Yesterday and Last 2 Weeks

Now
27 °F

Ice fog.


Feels Like: 18 °F
Forecast: 22 / 36 °F
Wind: 8 mph from Northeast

Location: Incheon International Airport

Current Time: Jan 19, 2017 at 3:43:14 am

Latest Report: Jan 19, 2017 at 3:00 am


Visibility: 3 mi

Pressure: 30.39 "Hg

Humidity: 74%

Dew Point: 19 °F

Location of IncheonLocation

Past Weather in Incheon — Graph

°F

Incheon Temperature Yesterday

Maximum temperature yesterday: 39 °F (at 3:00 pm)
Minimum temperature yesterday: 27 °F (at 11:30 pm)
Average temperature yesterday: 33 °F

High & Low Weather Summary for the Past Weeks

 TemperatureHumidityPressure
High50 °F (Jan 6, 2:00 pm)93% (Jan 4, 3:30 am)30.48 "Hg (Jan 4, 3:30 am)
Low18 °F (Jan 14, 7:00 am)27% (Jan 14, 11:00 am)29.89 "Hg (Jan 8, 3:30 pm)
Average32 °F59%30.25 "Hg
* Reported Jan 4 2:00 am — Jan 19 2:30 am, Incheon, Weather by CustomWeather, © 2017

Note: Actual official high and low records may vary slightly from our data, if they occured in-between our weather recording intervals... More about our weather records

Advertising

Incheon Weather History for the Previous 24 Hours

Scroll right to see more
 ConditionsComfort  
Time TempWeatherWind HumidityBarometerVisibility
2:30 am
Thu, Jan 19
28 °FIce fog.9 mph69%30.39 "Hg3 mi
2:00 am28 °FIce fog.8 mph69%30.39 "Hg3 mi
1:30 am30 °FIce fog.9 mph69%30.39 "Hg3 mi
1:00 am28 °FIce fog.7 mph74%30.39 "Hg3 mi
12:30 am30 °FIce fog.6 mph64%30.39 "Hg3 mi
12:00 am27 °FIce fog.3 mph74%30.42 "Hg3 mi
11:30 pm
Wed, Jan 18
27 °FIce fog.5 mph74%30.39 "Hg3 mi
11:00 pm28 °FIce fog.5 mph74%30.42 "Hg3 mi
10:30 pm28 °FIce fog.3 mph69%30.42 "Hg2 mi
10:00 pm30 °FIce fog.6 mph69%30.39 "Hg2 mi
9:30 pm28 °FIce fog.5 mph86%30.39 "Hg1 mi
9:00 pm32 °FIce fog.3 mph75%30.42 "Hg1 mi
8:30 pm32 °FIce fog.1 mph87%30.39 "Hg2 mi
8:00 pm32 °FIce fog.No wind75%30.39 "Hg2 mi
7:30 pm32 °FIce fog.2 mph80%30.39 "Hg2 mi
7:00 pm32 °FIce fog.3 mph75%30.39 "Hg2 mi
6:30 pm32 °FIce fog.6 mph75%30.39 "Hg2 mi
6:00 pm34 °FFog.5 mph70%30.39 "Hg2 mi
5:30 pm34 °FFog.6 mph75%30.39 "Hg2 mi
5:00 pm36 °FFog.7 mph81%30.39 "Hg2 mi
4:30 pm37 °FFog.5 mph81%30.39 "Hg2 mi
4:00 pm37 °FFog.7 mph81%30.42 "Hg2 mi
3:30 pm39 °FFog.7 mph75%30.42 "Hg2 mi
3:00 pm39 °FFog.3 mph75%30.39 "Hg2 mi
2:30 pm37 °FFog.3 mph81%30.39 "Hg1 mi
2:00 pm37 °FFog.3 mph81%30.39 "Hg1 mi
1:30 pm36 °FFog.3 mph87%30.39 "Hg1 mi
1:00 pm36 °FFog.5 mph87%30.39 "Hg1 mi
12:30 pm36 °FFog.5 mph87%30.42 "Hg1 mi
12:00 pm34 °FLight snow. Fog.5 mph87%30.42 "Hg1 mi
11:30 am37 °FFog.9 mph70%30.42 "Hg2 mi
11:00 am37 °FFog.10 mph75%30.45 "Hg2 mi
10:30 am37 °FFog.9 mph70%30.45 "Hg3 mi
10:00 am36 °FFog.9 mph75%30.45 "Hg3 mi
9:30 am34 °FFog.5 mph87%30.45 "Hg2 mi
9:00 am32 °FIce fog.1 mph80%30.45 "Hg3 mi
8:30 am30 °FIce fog.1 mph75%30.45 "Hg3 mi
8:00 am30 °FIce fog.1 mph80%30.45 "Hg3 mi
7:30 am28 °FIce fog.5 mph80%30.45 "Hg3 mi
7:00 am28 °FIce fog.2 mph80%30.45 "Hg3 mi
6:30 am28 °FIce fog.3 mph80%30.45 "Hg3 mi
6:00 am30 °FPassing clouds.1 mph80%30.45 "Hg4 mi
5:30 am32 °FPassing clouds.No wind75%30.48 "Hg4 mi
5:00 am30 °FPassing clouds.1 mph75%30.48 "Hg4 mi
4:30 am30 °FPassing clouds.1 mph80%30.48 "Hg4 mi
4:00 am32 °FPassing clouds.1 mph75%30.48 "Hg4 mi
3:30 am32 °FPassing clouds.1 mph75%30.48 "Hg4 mi
3:00 am32 °FPassing clouds.2 mph75%30.48 "Hg4 mi
Weather by CustomWeather, © 2017

See weather overviewHow to use our weather pages